• In Belarus
  • List of Countries
  • For 7 days
  • Water Temperature
  • Satellite Maps
  • Weather Map
  • Weather Widgets
  • user-avatar
    Login

    Hourly Weather Saint John

    Today, 22 January, Monday

    Time Temperature Precipitation Wind Pressure Humidity
    00:00 -11°C° 0 mm 5 mps 766 mmHg 84%
    01:00 -11°C° 0 mm 4 mps 767 mmHg 83%
    02:00 -12°C° 0 mm 4 mps 767 mmHg 81%
    03:00 -12°C° 0 mm 4 mps 768 mmHg 75%
    04:00 -14°C° 0 mm 4 mps 768 mmHg 69%
    05:00 -14°C° 0 mm 4 mps 768 mmHg 64%
    06:00 -14°C° 0 mm 4 mps 769 mmHg 63%
    07:00 -14°C° 0 mm 4 mps 770 mmHg 61%
    08:00 -17°C° 0 mm 5 mps 771 mmHg 57%
    09:00 -15°C° 0 mm 4 mps 771 mmHg 56%
    10:00 -14°C° 0 mm 4 mps 771 mmHg 55%
    11:00 -12°C° 0 mm 3 mps 771 mmHg 54%
    12:00 -10°C° 0 mm 3 mps 771 mmHg 52%
    13:00 -9°C° 0 mm 3 mps 771 mmHg 51%
    14:00 -8°C° 0 mm 3 mps 771 mmHg 49%
    15:00 -8°C° 0 mm 3 mps 771 mmHg 53%
    16:00 -8°C° 0 mm 2 mps 771 mmHg 57%
    17:00 -8°C° 0 mm 2 mps 771 mmHg 62%
    18:00 -9°C° 0 mm 2 mps 772 mmHg 65%
    19:00 -9°C° 0 mm 2 mps 772 mmHg 68%
    20:00 -10°C° 0 mm 2 mps 772 mmHg 72%
    21:00 -10°C° 0 mm 2 mps 772 mmHg 72%
    22:00 -10°C° 0 mm 2 mps 772 mmHg 71%
    23:00 -10°C° 0 mm 2 mps 772 mmHg 71%

    Tomorrow, 23 January, Tuesday

    Time Temperature Precipitation Wind Pressure Humidity
    00:00 -9°C° 0.1 mm 2 mps 772 mmHg 71%
    01:00 -10°C° 0.1 mm 3 mps 771 mmHg 72%
    02:00 -9°C° 0.1 mm 3 mps 771 mmHg 72%
    03:00 -10°C° 0.5 mm 4 mps 770 mmHg 79%
    04:00 -9°C° 0.5 mm 4 mps 770 mmHg 86%
    05:00 -10°C° 0.5 mm 5 mps 769 mmHg 93%
    06:00 -9°C° 1.3 mm 6 mps 769 mmHg 93%
    07:00 -8°C° 1.3 mm 7 mps 768 mmHg 94%
    08:00 -7°C° 1.3 mm 7 mps 767 mmHg 94%
    09:00 -6°C° 0.8 mm 7 mps 766 mmHg 93%
    10:00 -3°C° 0.8 mm 7 mps 765 mmHg 92%
    11:00 -2°C° 0.8 mm 7 mps 764 mmHg 92%
    12:00 -1°C° 1.7 mm 8 mps 763 mmHg 93%
    13:00 0°C° 1.7 mm 8 mps 761 mmHg 94%
    14:00 +1°C° 1.7 mm 8 mps 760 mmHg 96%
    15:00 +3°C° 1.7 mm 9 mps 758 mmHg 95%
    16:00 +5°C° 1.7 mm 9 mps 757 mmHg 95%
    17:00 +6°C° 1.7 mm 10 mps 755 mmHg 94%
    18:00 +7°C° 4.3 mm 10 mps 754 mmHg 94%
    19:00 +7°C° 4.3 mm 11 mps 753 mmHg 94%
    20:00 +8°C° 4.3 mm 12 mps 751 mmHg 94%
    21:00 +8°C° 3.9 mm 12 mps 750 mmHg 93%
    22:00 +8°C° 3.9 mm 11 mps 749 mmHg 93%
    23:00 +9°C° 3.9 mm 11 mps 747 mmHg 93%

    Day after tomorrow, 24 January, Wednesday

    Time Temperature Precipitation Wind Pressure Humidity
    00:00 +8°C° 1.7 mm 10 mps 746 mmHg 94%
    01:00 +7°C° 1.7 mm 10 mps 745 mmHg 95%
    02:00 +7°C° 1.7 mm 9 mps 744 mmHg 96%
    03:00 +6°C° 0.2 mm 9 mps 744 mmHg 93%
    04:00 +5°C° 0.2 mm 9 mps 744 mmHg 90%
    05:00 +3°C° 0.2 mm 9 mps 745 mmHg 87%
    06:00 +2°C° 0 mm 8 mps 745 mmHg 87%
    07:00 +1°C° 0 mm 8 mps 746 mmHg 86%
    08:00 0°C° 0 mm 7 mps 747 mmHg 85%
    09:00 +2°C° 0 mm 7 mps 747 mmHg 82%
    10:00 +1°C° 0 mm 8 mps 747 mmHg 79%
    11:00 +2°C° 0 mm 8 mps 747 mmHg 77%
    12:00 +2°C° 0 mm 8 mps 747 mmHg 76%
    13:00 +2°C° 0 mm 8 mps 747 mmHg 76%
    14:00 +1°C° 0 mm 8 mps 747 mmHg 75%
    15:00 +1°C° 0 mm 8 mps 748 mmHg 75%
    16:00 0°C° 0 mm 7 mps 748 mmHg 74%
    17:00 -1°C° 0 mm 7 mps 749 mmHg 73%
    18:00 -2°C° 0 mm 7 mps 750 mmHg 73%
    19:00 -4°C° 0 mm 8 mps 751 mmHg 72%
    20:00 -5°C° 0 mm 8 mps 752 mmHg 71%
    21:00 -6°C° 0 mm 7 mps 752 mmHg 71%
    22:00 -7°C° 0 mm 7 mps 753 mmHg 70%
    23:00 -8°C° 0 mm 7 mps 754 mmHg 69%

    25 January, Thursday

    Time Temperature Precipitation Wind Pressure Humidity
    00:00 -9°C° 0 mm 7 mps 754 mmHg 67%
    01:00 -9°C° 0 mm 6 mps 754 mmHg 65%
    02:00 -10°C° 0 mm 6 mps 755 mmHg 63%
    03:00 -10°C° 0 mm 6 mps 755 mmHg 63%
    04:00 -11°C° 0 mm 6 mps 755 mmHg 63%
    05:00 -11°C° 0 mm 6 mps 756 mmHg 62%
    06:00 -12°C° 0 mm 6 mps 756 mmHg 62%
    07:00 -12°C° 0 mm 6 mps 756 mmHg 62%
    08:00 -14°C° 0 mm 6 mps 757 mmHg 62%
    09:00 -14°C° 0 mm 6 mps 757 mmHg 60%
    10:00 -14°C° 0 mm 6 mps 758 mmHg 58%
    11:00 -14°C° 0 mm 6 mps 758 mmHg 56%
    12:00 -12°C° 0 mm 6 mps 758 mmHg 54%
    13:00 -13°C° 0 mm 7 mps 758 mmHg 53%
    14:00 -13°C° 0 mm 7 mps 757 mmHg 51%
    15:00 -13°C° 0 mm 7 mps 758 mmHg 53%
    16:00 -13°C° 0 mm 7 mps 758 mmHg 55%
    17:00 -14°C° 0 mm 7 mps 758 mmHg 57%
    18:00 -14°C° 0 mm 7 mps 759 mmHg 59%
    19:00 -16°C° 0 mm 8 mps 760 mmHg 61%
    20:00 -16°C° 0 mm 8 mps 761 mmHg 63%
    21:00 -17°C° 0 mm 8 mps 761 mmHg 63%
    22:00 -18°C° 0 mm 8 mps 762 mmHg 63%
    23:00 -18°C° 0 mm 8 mps 762 mmHg 63%

    26 January, Friday

    Time Temperature Precipitation Wind Pressure Humidity
    00:00 -19°C° 0 mm 8 mps 763 mmHg 64%
    01:00 -19°C° 0 mm 8 mps 763 mmHg 64%
    02:00 -19°C° 0 mm 7 mps 763 mmHg 65%
    03:00 -21°C° 0 mm 8 mps 764 mmHg 65%
    04:00 -21°C° 0 mm 8 mps 764 mmHg 65%
    05:00 -21°C° 0 mm 8 mps 765 mmHg 65%
    06:00 -21°C° 0 mm 8 mps 765 mmHg 65%
    07:00 -22°C° 0 mm 8 mps 766 mmHg 65%
    08:00 -22°C° 0 mm 8 mps 767 mmHg 66%
    09:00 -21°C° 0 mm 8 mps 767 mmHg 62%
    10:00 -19°C° 0 mm 8 mps 768 mmHg 59%
    11:00 -19°C° 0 mm 7 mps 769 mmHg 56%
    12:00 -18°C° 0 mm 7 mps 769 mmHg 53%
    13:00 -15°C° 0 mm 7 mps 769 mmHg 51%
    14:00 -14°C° 0 mm 7 mps 769 mmHg 48%
    15:00 -14°C° 0 mm 7 mps 769 mmHg 50%
    16:00 -14°C° 0 mm 6 mps 770 mmHg 53%
    17:00 -14°C° 0 mm 6 mps 771 mmHg 55%
    18:00 -14°C° 0 mm 6 mps 771 mmHg 59%
    19:00 -15°C° 0 mm 6 mps 772 mmHg 62%
    20:00 -14°C° 0 mm 5 mps 773 mmHg 65%
    21:00 -14°C° 0 mm 5 mps 773 mmHg 68%
    22:00 -14°C° 0 mm 4 mps 773 mmHg 70%
    23:00 -14°C° 0 mm 3 mps 773 mmHg 72%

    27 January, Saturday

    Time Temperature Precipitation Wind Pressure Humidity
    00:00 -14°C° 0 mm 3 mps 773 mmHg 73%
    01:00 -13°C° 0 mm 2 mps 773 mmHg 74%
    02:00 -13°C° 0 mm 2 mps 773 mmHg 75%
    03:00 -13°C° 0 mm 2 mps 773 mmHg 74%
    04:00 -12°C° 0 mm 2 mps 773 mmHg 73%
    05:00 -13°C° 0 mm 3 mps 773 mmHg 72%
    06:00 -12°C° 0 mm 4 mps 772 mmHg 75%
    07:00 -12°C° 0 mm 5 mps 772 mmHg 78%
    08:00 -11°C° 0 mm 6 mps 771 mmHg 81%
    09:00 -8°C° 0 mm 7 mps 770 mmHg 77%
    10:00 -6°C° 0 mm 8 mps 770 mmHg 74%
    11:00 -3°C° 0 mm 10 mps 769 mmHg 70%
    12:00 -3°C° 0 mm 10 mps 768 mmHg 73%
    13:00 -2°C° 0 mm 11 mps 766 mmHg 76%
    14:00 -2°C° 0 mm 11 mps 765 mmHg 78%
    15:00 -1°C° 0.1 mm 11 mps 764 mmHg 81%
    16:00 +1°C° 0.1 mm 11 mps 763 mmHg 83%
    17:00 +1°C° 0.1 mm 11 mps 762 mmHg 86%
    18:00 +1°C° 0.5 mm 10 mps 762 mmHg 86%
    19:00 +1°C° 0.5 mm 9 mps 762 mmHg 87%
    20:00 0°C° 0.5 mm 8 mps 762 mmHg 87%
    21:00 0°C° 0 mm 8 mps 762 mmHg 87%
    22:00 0°C° 0 mm 8 mps 761 mmHg 87%
    23:00 0°C° 0 mm 7 mps 761 mmHg 87%
    Show more